UPS349 EDDK-EHAM

Flight info

Callsign UPS349
Flight time N/A
Altitude 22000
Route NVO1Y NVO Y868 SOGRI L608 BUB Y28 HELEN
Aircraft B721/M-SDFGHRWY/C

Departure

Time 2026-04-30 11:27
Airport Cologne Bonn Airport (EDDK)

Arrival

Time N/A
Airport Amsterdam Airport Schiphol (EHAM)
Time Latitude Longitude Altitude Speed Heading
2026-04-30 10:59 50.87437 7.12971 236 ft 0 kts 227°
2026-04-30 11:17 50.87440 7.12975 236 ft 3 kts 227°
2026-04-30 11:17 50.87457 7.13006 241 ft 4 kts 227°
2026-04-30 11:17 50.87474 7.13038 241 ft 4 kts 235°
2026-04-30 11:18 50.87485 7.13076 241 ft 4 kts 256°
2026-04-30 11:18 50.87472 7.13128 240 ft 1 kts 317°
2026-04-30 11:18 50.87471 7.13130 241 ft 0 kts 317°
2026-04-30 11:23 50.87480 7.13116 237 ft 6 kts 315°
2026-04-30 11:24 50.87529 7.13041 236 ft 13 kts 313°
2026-04-30 11:24 50.87609 7.12928 236 ft 18 kts 320°
2026-04-30 11:24 50.87712 7.12782 236 ft 21 kts 317°
2026-04-30 11:25 50.87936 7.12641 238 ft 20 kts 34°
2026-04-30 11:25 50.87999 7.12784 241 ft 14 kts 78°
2026-04-30 11:25 50.87959 7.13034 242 ft 0 kts 138°
2026-04-30 11:27 50.87838 7.13209 242 ft 61 kts 139°
2026-04-30 11:27 50.87337 7.13915 245 ft 128 kts 137°
2026-04-30 11:27 50.86580 7.14977 565 ft 157 kts 133°
2026-04-30 11:27 50.85717 7.16121 1335 ft 165 kts 136°
2026-04-30 11:28 50.83329 7.18225 3171 ft 225 kts 162°
2026-04-30 11:28 50.81737 7.18649 4535 ft 233 kts 169°
2026-04-30 11:28 50.81244 7.18726 4997 ft 238 kts 169°